Find Starlink 5663

NORAD ID: 55347 Int'l Des: 2023-013 Owner: SPXS Country: US Constellation: starlink operational
LEOCIRCULAR

Live-Position

3D-Globus wird geladen...

Über Starlink 5663

Beschreibung wird geladen...

Nächste Überflüge

Passes for default location (London). Set your location on the main map for personalized predictions.

Höhenverlauf

Loading altitude history...

Zweizeiliger Elementsatz

1 55347U 23013S 26123.90989993 -.00000324 00000-0 -23956-5 0 9994
2 55347 43.0032 351.1225 0001436 263.2235 96.8453 15.26736523180121
Epoch: 3. Mai 2026 • Age: 11 hours

Aktueller Status

Höhe 489.2 km
Geschwindigkeit 7.63 km/s
Subsatellitenpunkt 41.10°N, 98.33°E
Startdatum 26. Jan. 2023
Alter 3.2 years
Typ internet

Technische Details

Klassifizierung Payload
Masse 305.00 kg
Trockenmasse 290.00 kg
Gesamtmasse 305.00 kg
Länge 0.20 m
Durchmesser 2.80 m
Spannweite 9.00 m
Form Box + pan
Hersteller SPXS
Bus-Typ Starlink
Phasenstatus In Orbit
Besitzer/Staat SPXS/US

Most Searched